EUTELSAT 117 WEST B

Last updated on Wed Sep 17 2025 00:02:49 GMT+0000 (Coordinated Universal Time)

1 41589U 16038B 25259.20365288 -.00000030 00000+0 00000+0 0 9994 2 41589 0.0393 14.6362 0000124 53.1916 243.8918 1.00270674 33916
UTC large
Height (km)
Speed (km/s)
/
Latitude / Longitude
Inclination (degrees)
Orbital Period (minutes)
Azimuth
Elevation
Range (km)
Doppler Factor

Next 0 passes for location: London (51.5072 / 0.1276)

Sorry there are no passes over London.